Lid_Strength_Index
2 2 2 2 2 2 1 2 2 3 3 2 2 3 3 4 4 5 4 5 5 6
2 2 2 1 1 1 1 2 2 3 3 2 3 4 4 5 6 4 4 5 6 6
2 1 1 1 1 1 1 2 2 3 3 3 4 4 5 5 5 5 5 5 6 6
2 2 1 2 2 2 2 2 3 2 3 4 5 5 5 5 6 6 6 6 7 7
2 2 2 2 2 3 3 3 3 4 4 5 5 5 5 6 6 6 7 8 9 10
2 2 3 3 3 3 4 4 5 5 5 4 5 6 6 5 6 7 8 9 10 11
2 2 3 3 3 4 4 5 5 5 5 5 5 6 5 6 7 8 9 10 12 12
2 2 3 4 4 4 5 5 5 6 7 6 6 6 6 6 7 9 10 12 12 13
4 5 5 4 4 5 6 7 8 9 9 8 6 8 7 8 9 10 10 13 13 14
5 5 5 5 6 7 8 9 10 10 10 9 9 10 10 10 12 12 14 15 15 15
5 5 5 6 8 9 9 10 11 12 12 11 11 11 11 11 14 15 15 15 16 16
6 7 7 9 9 9 10 10 12 12 13 14 13 11 11 13 15 16 17 15 15 15
6 7 9 9 10 10 10 12 12 13 14 13 14 11 11 11 13 15 15 16 16 12
7 8 9 10 10 11 12 12 12 14 14 14 14 12 12 11 11 13 14 15 15 15